Flag for India Weather past 2 weeks in Ahmedabad, Gujarat, India

Now
81 °F

Fog.


Feels Like: 88 °F
Forecast: 78 / 94 °F
Wind: 3 mph from Northwest

Location: Ahmadabad Airport

Current Time: Sep 22, 2014 at 10:07:23 AM

Latest Report: Sep 22, 2014 at 7:40 AM


Visibility: 2 mi

Pressure: 29.83 "Hg

Humidity: 94%

Dew point: 79 °F

Location of AhmedabadLocation

Historic Weather in Ahmedabad — Graph

°F

Ahmedabad temperature yesterday

Maximum temperature yesterday: 93 °F (at 3:40 PM)
Minimum temperature yesterday: 77 °F (at 5:40 AM)
Average temperature yesterday: 84 °F

Past Weeks' High & Low Weather Summary

 TemperatureHumidityPressure
High93 °F (Sep 7, 3:10 PM)100% (Sep 8, 8:10 AM)29.83 "Hg (Sep 8, 8:10 AM)
Low75 °F (Sep 8, 9:10 PM)56% (Sep 19, 4:10 PM)29.59 "Hg (Sep 8, 3:10 PM)
Average83 °F87%29.72 "Hg
* Reported Sep 7 7:40 AM — Sep 22 7:40 AM, Ahmedabad, Weather by CustomWeather, © 2014

Note: Actual official high and low records may vary slightly from our data, if they occured in-between our weather recording intervals... More about our weather records

Advertising

Ahmedabad weather history for previous 24 hours

 ConditionsComfort  
Time TempWeatherWind HumidityBarometerVisibility
7:40 AM
Sep 22
81 °FFog.3 mph94%29.83 "Hg2 mi
6:40 AM79 °FFog.3 mph94%29.80 "Hg2 mi
5:10 AM79 °FFog.5 mph94%29.77 "Hg2 mi
3:40 AM79 °FFog.6 mph94%29.74 "Hg2 mi
3:10 AM79 °FFog.6 mph94%29.74 "Hg2 mi
2:40 AM79 °FHaze.6 mph94%29.74 "Hg2 mi
1:40 AM79 °FHaze.6 mph94%29.77 "Hg2 mi
1:10 AM81 °FPassing clouds.6 mph89%29.77 "Hg2 mi
12:40 AM82 °FPassing clouds.6 mph84%29.77 "Hg2 mi
11:10 PM
Sep 21
82 °FPassing clouds.5 mph84%29.80 "Hg2 mi
10:40 PM82 °FPassing clouds.5 mph79%29.80 "Hg2 mi
10:10 PM82 °FPassing clouds.5 mph79%29.77 "Hg2 mi
9:10 PM84 °FPassing clouds.5 mph74%29.77 "Hg2 mi
7:40 PM86 °FPassing clouds.5 mph70%29.74 "Hg2 mi
4:40 PM91 °FScattered clouds.6 mph56%29.71 "Hg4 mi
3:40 PM93 °FScattered clouds.7 mph59%29.71 "Hg4 mi
2:40 PM91 °FScattered clouds.5 mph63%29.71 "Hg4 mi
1:40 PM91 °FScattered clouds.6 mph63%29.74 "Hg3 mi
12:40 PM91 °FScattered clouds.8 mph63%29.77 "Hg3 mi
12:10 PM90 °FScattered clouds.6 mph67%29.80 "Hg3 mi
11:40 AM90 °FScattered clouds.6 mph67%29.80 "Hg3 mi
11:10 AM88 °FScattered clouds.6 mph70%29.80 "Hg3 mi
10:40 AM88 °FHaze.6 mph70%29.80 "Hg3 mi
Weather by CustomWeather, © 2014

See weather overviewHow to use our weather pages